Weather History for China Lake, CA

Change the Weather History Date:

Monday, July 29, 2013

  Actual Average Record
Temperature  
Mean Temperature 88 °F -  
Max Temperature 107 °F 100 °F 108 °F (2007)
Min Temperature 70 °F 72 °F 66 °F (2002)
Cooling Degree Days 23    
Growing Degree Days 38 (Base 50)    
Moisture  
Dew Point 37 °F    
Average Humidity 18    
Maximum Humidity 35    
Minimum Humidity 6    
Precipitation  
Precipitation 0.00 in - - ()
Sea Level Pressure  
Sea Level Pressure 29.83 in    
Wind  
Wind Speed 8 mph (SSE)    
Max Wind Speed 24 mph    
Max Gust Speed 31 mph    
Visibility 10 miles    
Events      
Averages and records for this station are not official NWS values.
T = Trace of Precipitation, MM = Missing Value Source: NWS Daily Summary

Daily Weather History Graph

Daily Weather History Graph

Search for Another Location

Airport:

Trip Planner

Search our weather history database for the weather conditions in past years. The results will help you decide how hot, cold, wet, or windy it might be!

Date:

Astronomy

Jul. 29, 2013 Rise Set
Actual Time 5:56 AM PDT 7:57 PM PDT
Civil Twilight 5:28 AM PDT 8:25 PM PDT
Nautical Twilight 4:53 AM PDT 8:59 PM PDT
Astronomical Twilight 4:16 AM PDT 9:36 PM PDT
Moon No Moon Rise 1:25 PM PDT (7/29)
Length of Visible Light 14h 57m
Length of Day
14h 00m
Waning Gibbous, 50% of the Moon is Illuminated
Jul 29
Waning Gibbous
Aug 6
New
Aug 14
First Quarter
Aug 20
Full
Aug 28
Last Quarter

Hourly Weather History & Observations

Time (PDT) Temp. Dew Point Humidity Pressure Visibility Wind Dir Wind Speed Gust Speed Precip Events Conditions
12:56 AM 81.0 °F 39.0 °F 22% 29.79 in 10.0 mi ENE 6.9 mph - N/A   Clear
1:56 AM 79.0 °F 36.0 °F 21% 29.78 in 10.0 mi NE 6.9 mph - N/A   Clear
2:56 AM 80.1 °F 35.1 °F 20% 29.79 in 10.0 mi ENE 8.1 mph - N/A   Clear
3:56 AM 73.9 °F 42.1 °F 32% 29.80 in 10.0 mi Calm Calm - N/A   Clear
4:56 AM 70.0 °F 37.9 °F 31% 29.81 in 10.0 mi South 5.8 mph - N/A   Clear
5:56 AM 70.0 °F 39.9 °F 33% 29.84 in 10.0 mi South 5.8 mph - N/A   Clear
6:56 AM 75.9 °F 46.0 °F 35% 29.85 in 10.0 mi Calm Calm - N/A   Clear
7:56 AM 81.0 °F 46.0 °F 29% 29.86 in 10.0 mi Calm Calm - N/A   Clear
8:56 AM 87.1 °F 44.1 °F 22% 29.86 in 10.0 mi Calm Calm - N/A   Clear
9:56 AM 91.0 °F 46.0 °F 21% 29.86 in 10.0 mi ENE 5.8 mph - N/A   Clear
10:56 AM 93.9 °F 46.9 °F 20% 29.87 in 10.0 mi ESE 9.2 mph - N/A   Clear
11:56 AM 96.1 °F 46.9 °F 19% 29.86 in 10.0 mi SE 6.9 mph - N/A   Clear
12:56 PM 99.0 °F 45.0 °F 16% 29.86 in 10.0 mi Calm Calm - N/A   Partly Cloudy
1:56 PM 104.0 °F 30.9 °F 8% 29.83 in 10.0 mi SSE 13.8 mph 21.9 mph N/A   Partly Cloudy
2:56 PM 106.0 °F 33.1 °F 8% 29.82 in 10.0 mi SSE 19.6 mph 23.0 mph N/A   Partly Cloudy
3:56 PM 105.1 °F 27.0 °F 6% 29.81 in 10.0 mi South 18.4 mph 27.6 mph N/A   Partly Cloudy
4:56 PM 105.1 °F 24.1 °F 6% 29.80 in 10.0 mi South 23.0 mph 29.9 mph N/A   Partly Cloudy
5:56 PM 102.9 °F 24.1 °F 6% 29.79 in 10.0 mi South 24.2 mph 31.1 mph N/A   Partly Cloudy
6:56 PM 100.0 °F 28.0 °F 8% 29.80 in 10.0 mi South 23.0 mph 31.1 mph N/A   Partly Cloudy
7:56 PM 95.0 °F 28.9 °F 10% 29.83 in 10.0 mi South 17.3 mph - N/A   Clear
8:56 PM 91.0 °F 33.1 °F 13% 29.85 in 10.0 mi South 15.0 mph - N/A   Clear
9:56 PM 88.0 °F 37.0 °F 16% 29.86 in 10.0 mi South 11.5 mph - N/A   Clear
10:56 PM 87.1 °F 39.0 °F 18% 29.88 in 10.0 mi South 10.4 mph - N/A   Clear
11:56 PM 84.0 °F 41.0 °F 22% 29.89 in 10.0 mi South 8.1 mph - N/A   Clear